GFSFLT2_sfc_rhum_024.txt.gz
RH
49 62 76 84 86 87 87 87 87 87 87 87 86 87 87 84 83 82 81 81 81 81 82 82 80 78 77 79 81 82 81 65
40 50 56 67 77 86 87 86 86 85 84 84 85 84 84 84 85 81 79 78 77 77 78 79 80 81 80 78 80 81 74 63
44 40 50 59 62 70 84 85 85 86 83 82 84 71 73 71 79 81 77 77 77 76 75 78 81 83 84 84 80 66 55 52
46 54 54 46 28 66 69 58 69 71 65 66 63 64 64 56 71 81 80 80 81 80 80 82 80 66 78 83 78 58 52 49
45 60 56 54 53 48 51 52 58 65 67 63 66 61 70 71 81 80 87 86 78 79 77 80 63 66 63 65 59 54 56 49
49 58 62 56 53 51 52 52 58 58 61 62 69 70 72 67 67 62 64 62 61 61 63 64 61 62 61 59 56 56 50 49
42 58 66 61 57 60 59 60 62 61 60 62 66 66 73 69 67 65 63 59 57 62 59 58 61 58 58 55 51 52 50 48
44 52 65 59 54 57 60 62 62 63 60 60 58 67 72 70 68 65 63 61 61 62 62 65 64 60 58 56 51 49 47 49
47 80 58 62 51 52 51 52 48 52 55 55 52 57 64 65 69 67 63 65 66 65 65 63 64 56 57 58 58 55 53 50
38 33 56 61 55 52 47 48 52 50 50 53 53 53 57 66 68 69 68 70 69 69 69 66 66 65 64 62 55 52 52 53
37 43 52 55 53 47 51 50 51 50 56 51 58 52 56 63 66 69 69 68 70 69 64 71 70 68 58 57 61 60 54 39
40 47 57 63 53 50 49 48 47 49 49 52 54 52 58 64 62 66 67 65 66 67 72 70 71 70 51 49 55 55 58 61
46 52 51 48 47 48 50 53 51 49 46 50 52 51 50 60 61 61 64 64 68 67 69 69 68 70 70 64 61 62 61 52
39 38 44 42 41 45 51 54 51 50 50 48 48 50 52 50 61 60 62 65 67 70 71 71 69 71 74 69 70 62 58 51
38 40 42 48 53 43 47 49 52 49 51 50 48 58 57 58 62 63 65 66 70 70 68 70 72 71 73 78 76 74 70 62
43 41 40 42 50 52 58 55 52 54 55 51 48 55 55 50 52 58 64 70 72 72 64 82 80 84 78 72 79 85 94 83
49 42 39 44 48 54 60 61 59 55 58 59 57 57 55 50 52 60 68 70 72 84 79 80 80 84 86 86 84 81 91 87
51 44 39 44 46 52 56 60 61 61 61 62 60 55 52 54 50 64 67 72 75 76 76 80 76 80 84 87 91 89 92 94
46 46 44 45 51 51 55 60 62 61 62 61 60 55 55 55 59 66 74 76 80 81 82 81 81 88 88 92 91 85 88 92
46 45 45 44 52 60 60 60 59 59 59 57 60 60 61 61 71 73 73 78 79 79 82 84 87 90 85 79 84 81 86 83

GFSFLT2_sfc_rhum_030.txt.gz
RH
94 91 86 87 87 87 88 88 89 89 88 89 89 89 89 87 84 81 79 78 76 74 76 78 80 81 82 82 85 86 91 76
94 94 90 92 92 88 88 87 87 86 85 86 88 88 88 87 85 83 81 78 75 74 76 77 78 80 79 80 83 84 84 75
86 87 88 91 91 85 87 87 87 86 83 85 90 90 90 89 85 82 80 79 78 77 78 77 78 80 80 80 83 88 82 69
72 81 83 86 63 87 88 82 87 87 87 88 89 91 91 85 87 82 81 80 81 81 82 83 83 88 84 79 84 79 77 62
69 75 82 78 68 88 92 92 95 94 90 92 92 87 94 92 93 94 94 87 93 88 90 91 88 89 85 81 76 72 72 63
60 67 76 72 72 84 87 88 90 92 88 80 85 90 82 89 94 91 90 86 92 94 94 84 81 79 75 78 76 73 67 61
60 65 69 67 69 73 73 77 83 85 80 74 80 79 79 80 80 78 77 77 76 74 74 70 70 68 67 67 67 68 64 63
77 74 80 82 68 64 66 76 72 80 79 75 75 81 79 80 76 77 76 80 81 80 77 78 79 79 76 73 71 69 64 61
70 88 85 81 77 72 63 68 70 78 73 72 72 75 76 76 77 76 77 82 80 80 79 82 80 73 78 75 74 72 73 68
80 78 82 85 88 89 76 62 64 69 72 75 69 68 71 76 73 74 79 80 79 80 83 81 82 83 81 72 79 75 70 69
94 93 90 85 91 84 74 69 66 68 70 74 66 69 68 72 72 75 75 71 75 78 76 84 82 76 63 65 74 81 76 61
82 87 87 89 87 79 75 69 62 66 68 63 68 66 66 70 72 71 71 72 76 77 77 78 81 80 64 61 84 83 87 87
70 77 70 69 72 74 68 63 64 68 64 66 66 64 62 67 70 70 73 75 79 79 84 80 82 89 93 77 85 77 81 80
64 59 57 55 62 65 65 66 69 67 66 67 65 62 61 53 68 68 72 80 78 81 88 92 95 94 96 97 93 70 84 59
57 56 56 59 61 62 66 68 70 67 69 69 66 64 63 65 66 71 73 79 81 89 91 88 95 92 86 78 81 93 80 73
56 55 57 57 61 65 65 69 66 73 75 72 69 65 64 63 65 70 76 86 92 93 85 90 84 81 82 72 79 86 94 86
60 56 56 61 65 68 72 67 74 76 78 71 67 67 64 62 71 82 88 92 93 89 88 88 90 90 94 88 95 95 97 95
64 60 61 66 69 72 76 76 76 75 70 70 72 72 70 75 79 87 90 92 92 93 92 91 94 93 93 94 95 95 92 83
62 59 65 64 67 70 71 72 71 66 64 69 70 72 75 82 86 88 92 91 91 92 93 93 93 95 94 95 95 96 92 91
62 59 63 68 72 69 71 72 72 70 66 73 79 81 80 81 86 81 82 84 89 91 94 94 92 95 94 96 98 92 94 92

GFSFLT2_sfc_rhum_033.txt.gz
RH
95 94 90 89 90 91 91 91 90 90 90 90 90 89 88 85 82 79 76 74 71 71 73 74 76 77 77 79 83 84 82 78
94 94 94 94 94 90 90 90 89 88 88 88 88 87 86 85 84 82 79 76 74 73 74 75 76 78 80 81 84 82 83 74
94 95 93 92 90 85 87 88 87 88 86 86 90 93 92 90 86 84 80 79 77 77 78 80 80 82 83 83 82 85 81 73
93 92 90 89 70 90 91 86 90 89 89 90 91 92 93 88 90 86 82 81 82 84 85 86 88 92 89 82 83 79 79 69
79 83 86 85 77 94 93 94 94 93 91 91 94 91 96 96 97 95 96 86 95 92 91 94 90 91 89 89 83 79 80 70
74 82 84 84 83 85 88 92 93 94 93 92 96 97 94 92 97 93 89 83 83 87 87 81 75 74 75 76 76 80 80 72
71 79 85 77 80 88 90 89 88 88 90 84 86 86 84 85 84 83 83 82 83 83 82 79 80 79 78 77 76 76 74 73
73 78 81 78 74 78 80 84 87 88 88 82 80 82 83 83 78 78 80 85 86 85 84 84 82 80 73 76 74 76 76 74
74 84 90 86 79 73 74 80 77 84 83 78 79 82 82 79 82 80 84 83 79 79 78 77 74 72 73 74 75 75 73 75
89 84 90 89 93 91 82 70 71 77 77 80 76 78 78 80 79 80 80 75 78 79 79 75 77 80 82 77 78 76 76 75
97 94 96 94 87 87 78 72 74 74 75 74 72 71 73 77 78 79 77 77 81 79 77 83 80 81 75 73 78 85 83 75
90 91 93 93 83 79 75 63 64 66 71 67 66 65 68 70 69 69 66 76 80 82 81 80 84 93 71 75 85 85 89 88
84 81 75 70 78 86 81 77 71 74 64 66 64 63 57 61 65 69 76 77 81 81 85 86 92 93 95 84 89 86 83 68
64 57 59 60 62 68 69 73 74 73 71 68 64 63 62 60 66 67 67 73 79 82 92 94 96 95 92 96 89 69 74 56
59 58 57 61 65 68 70 72 77 74 72 72 70 67 66 66 68 74 80 86 91 93 94 92 96 93 90 85 86 92 91 78
62 61 61 62 65 64 64 66 66 78 80 76 70 68 66 68 75 83 90 95 93 94 86 92 93 94 91 83 90 91 97 94
67 64 65 69 70 72 74 72 79 80 74 68 67 66 68 75 81 85 87 92 92 92 93 93 95 94 96 93 94 94 95 86
70 66 71 70 72 72 73 77 78 74 70 64 69 72 74 83 83 90 91 92 92 93 93 91 93 95 95 96 97 93 93 90
70 70 69 69 71 73 74 74 71 66 65 69 72 77 79 80 85 87 92 91 91 92 92 93 93 94 94 97 97 98 93 92
67 70 71 72 70 72 74 68 71 70 69 78 81 82 81 80 84 85 84 88 91 92 95 95 93 96 95 95 97 97 98 96

GFSFLT2_sfc_rhum_039.txt.gz
RH
79 75 84 96 96 95 95 94 93 91 90 89 88 86 85 82 80 76 73 76 76 75 78 82 80 81 82 85 85 79 44 42
77 77 74 77 77 94 94 92 92 90 88 88 87 86 83 82 80 81 79 78 78 79 83 85 84 84 85 86 83 72 45 42
75 70 71 72 70 75 86 88 88 88 82 86 84 63 63 63 81 84 82 83 83 82 83 86 84 76 80 82 74 45 46 44
70 74 73 73 61 71 72 68 65 66 66 70 63 70 66 65 77 84 82 80 77 80 80 78 62 46 46 59 44 48 44 45
68 73 74 71 67 68 63 63 66 67 73 71 72 69 69 65 65 62 64 66 52 55 52 50 56 50 46 47 44 42 42 39
64 70 73 75 65 64 65 64 66 65 66 74 72 68 72 72 65 60 61 58 61 57 54 58 53 50 48 45 44 36 33 32
62 69 72 71 72 70 70 71 69 71 71 75 70 68 71 63 65 59 58 53 52 52 49 48 48 46 43 43 41 42 42 37
65 71 72 70 67 70 70 73 69 77 85 80 76 68 70 64 61 55 51 49 50 49 50 46 44 45 42 45 44 40 41 49
72 80 74 75 76 78 84 82 76 84 84 81 79 74 68 62 56 53 51 53 56 49 48 46 41 40 41 40 40 45 46 53
77 80 84 85 84 87 88 90 90 87 83 81 73 68 60 57 50 50 51 51 46 45 45 41 43 43 46 41 43 45 55 49
84 86 89 89 95 97 90 78 78 73 65 57 61 61 59 52 50 52 50 47 49 48 45 52 46 47 45 42 44 42 50 36
90 87 95 98 96 88 82 70 61 58 53 51 52 50 53 50 48 52 48 46 50 53 58 52 57 60 44 43 41 45 45 41
96 90 94 84 78 79 68 69 56 52 47 53 51 49 50 53 46 48 50 48 58 62 55 58 48 58 55 40 41 57 52 44
82 72 69 61 50 49 50 50 51 50 50 54 51 51 50 48 53 50 53 43 50 55 60 51 51 61 55 47 38 36 46 42
69 65 59 56 54 53 55 55 54 50 50 47 48 50 50 52 53 51 52 51 48 56 61 65 54 56 64 55 48 42 52 42
49 51 50 53 56 52 54 46 46 55 54 48 45 51 51 52 54 57 58 56 56 56 55 64 65 57 55 52 64 65 67 63
56 53 54 58 57 56 54 59 59 55 52 54 54 52 52 55 57 59 60 57 62 66 67 69 64 64 59 58 61 58 61 69
58 56 57 57 57 60 62 64 60 54 53 51 50 51 51 55 56 61 64 66 68 65 69 72 68 67 62 63 61 64 63 65
57 52 54 57 60 60 62 61 58 55 51 49 50 46 47 50 58 61 60 65 67 69 71 71 71 69 71 69 69 70 70 82
55 54 56 55 56 57 56 55 49 49 51 52 53 53 54 59 61 62 64 67 68 71 73 77 73 76 74 70 67 66 68 66

GFSFLT2_sfc_rhum_042.txt.gz
RH
59 59 78 95 94 94 94 94 92 89 88 89 87 85 83 80 78 74 73 74 73 74 78 80 81 80 81 81 80 74 31 28
48 50 50 55 63 95 95 92 90 88 88 87 86 83 81 78 79 78 76 75 76 78 80 80 77 78 79 80 77 73 29 27
50 45 49 47 46 67 85 88 87 86 81 85 81 44 47 51 79 81 80 79 79 80 80 76 74 72 73 71 75 28 28 26
43 48 50 49 39 50 50 47 46 48 48 54 45 53 48 48 67 80 78 71 74 73 71 69 55 31 30 47 28 33 28 28
41 53 56 50 49 44 40 41 47 51 58 54 55 53 52 46 44 42 45 55 36 42 40 36 44 37 33 36 33 30 26 24
43 50 57 56 43 42 46 44 48 48 52 60 58 54 60 58 46 44 46 40 46 42 39 45 42 39 37 38 36 32 28 27
44 48 52 54 54 50 53 53 49 57 55 62 60 69 64 51 51 43 44 40 38 40 38 36 38 37 37 37 35 35 35 28
47 50 52 52 54 61 59 62 61 57 66 77 78 77 65 52 49 44 40 39 38 39 40 37 35 36 34 36 36 34 34 37
54 58 57 59 59 57 58 58 72 78 73 77 74 64 60 55 47 43 41 41 42 39 41 35 33 32 34 32 32 33 32 38
60 66 69 68 71 76 77 81 75 75 71 73 67 60 54 50 43 45 45 42 40 38 36 36 33 32 33 29 28 29 29 36
66 68 72 76 77 94 94 82 71 60 53 55 56 54 51 48 45 45 43 39 40 37 33 34 32 29 26 23 26 25 24 24
71 72 91 97 97 94 87 58 53 49 46 45 46 45 46 43 42 44 37 32 31 35 39 34 34 36 30 26 30 28 28 32
72 78 91 92 67 63 51 53 45 42 38 42 42 41 43 45 35 35 33 33 39 40 37 37 33 36 40 27 25 26 41 35
68 61 64 57 47 40 38 38 36 35 38 44 42 44 42 34 37 32 36 33 39 42 44 39 33 33 46 40 30 25 22 32
53 50 49 43 40 39 40 42 42 39 40 38 40 40 36 36 37 38 39 37 36 43 42 45 40 36 39 45 45 37 34 30
37 39 39 42 44 38 40 33 33 39 40 38 36 38 35 34 37 40 43 42 44 42 35 47 45 43 36 32 42 46 62 59
40 38 37 41 42 41 40 42 42 41 41 45 41 38 37 35 37 43 44 42 45 50 51 50 44 46 46 48 50 45 46 56
43 39 40 43 44 46 47 48 43 39 38 36 33 32 32 36 37 42 44 46 48 48 51 53 53 53 54 55 55 56 47 54
46 40 42 44 46 45 45 44 40 36 34 31 35 31 33 37 42 45 42 44 48 50 52 52 54 56 54 53 57 61 54 61
41 40 42 42 42 44 42 35 32 32 35 39 39 39 41 47 49 46 43 43 46 50 52 55 58 56 60 55 51 45 46 48